K5RG-3 Weather Reports


Display with metric or nautical units.
time (UTC)temp
F
wind
direction
speed
MPH
gust
MPH
rain 1hr
in
rain 24hr
in
rain mn
in
humidity
%
barometer
mb
20210921063203 80 133 0.0 0.0 0.00 0.00 0.00 94 1012.4
20210921061606 80 126 0.0 0.0 0.00 0.00 0.00 95 1012.3
20210921060101 80 137 0.0 0.0 0.00 0.00 0.00 94 1012.2
20210921054552 80 133 0.0 0.0 0.00 0.00 0.00 93 1012.1
20210921053058 80 360 0.0 0.0 0.00 0.00 0.00 93 1012.0
20210921051605 81 134 0.0 0.0 0.00 0.00 0.00 92 1012.0
20210921050040 81 360 0.0 0.0 0.00 0.00 0.00 92 1012.0
20210921044556 81 360 0.0 0.0 0.00 0.00 0.00 92 1011.9
20210921043054 81 360 0.0 0.0 0.00 0.00 0.00 91 1011.8
20210921041608 81 360 0.0 0.0 0.00 0.00 0.00 91 1011.8
20210921040029 81 360 0.0 0.0 0.00 0.00 0.00 90 1012.0
20210921034554 82 360 0.0 0.0 0.00 0.00 0.00 90 1012.0
20210921033057 82 137 0.0 0.0 0.00 0.00 0.00 90 1011.9
20210921031601 82 360 0.0 0.0 0.00 0.00 0.00 90 1011.7
20210921030110 82 360 0.0 0.0 0.00 0.00 0.00 90 1011.6
20210921024530 82 360 0.0 0.0 0.00 0.00 0.00 90 1011.3
20210921023159 82 360 0.0 0.0 0.00 0.00 0.00 89 1011.2
20210921021531 83 360 0.0 0.0 0.00 0.00 0.00 88 1011.1
20210921020053 83 360 0.0 0.0 0.00 0.00 0.00 87 1010.9
20210921014529 83 148 0.0 0.0 0.00 0.00 0.00 86 1010.7
20210921013023 83 360 0.0 0.0 0.00 0.00 0.00 85 1010.5
20210921011613 84 360 0.0 0.0 0.00 0.00 0.00 85 1010.5
20210921010039 84 360 0.0 0.0 0.00 0.00 0.00 83 1010.3
20210921004522 85 121 0.0 0.0 0.00 0.00 0.00 82 1010.1
20210921003047 85 152 0.0 0.0 0.00 0.00 0.00 80 1010.1
20210921001523 86 360 0.0 0.0 0.00 0.00 0.00 78 1010.0
20210921000037 87 360 0.0 0.0 0.00 0.00 0.00 75 1010.0
20210920234535 88 360 0.0 0.0 0.00 0.00 0.00 72 1009.8
20210920233028 89 90 0.0 0.0 0.00 0.00 0.00 71 1009.8
20210920231522 89 140 0.0 0.0 0.00 0.00 0.00 70 1009.9
20210920230017 90 136 0.0 0.0 0.00 0.00 0.00 70 1009.9
20210920224530 90 360 0.0 0.0 0.00 0.00 0.00 69 1009.8
20210920223017 91 152 0.0 0.0 0.00 0.00 0.00 68 1009.7
20210920221514 91 360 0.0 0.0 0.00 0.00 0.00 68 1009.4
20210920220033 92 154 0.0 0.0 0.00 0.00 0.00 67 1009.4
20210920214528 91 159 0.0 0.0 0.00 0.00 0.00 70 1009.5
20210920213040 92 132 0.0 0.0 0.00 0.00 0.00 67 1009.5
20210920211538 92 128 0.0 0.0 0.00 0.00 0.00 67 1009.5
20210920210008 92 150 0.0 0.0 0.00 0.00 0.00 66 1009.6
20210920204520 91 81 0.0 0.0 0.00 0.00 0.00 69 1009.7
20210920203005 89 167 0.0 0.0 0.00 0.00 0.00 75 1009.9
20210920201512 88 110 0.0 0.0 0.00 0.00 0.00 75 1010.0
20210920200035 89 117 0.0 0.0 0.00 0.00 0.00 73 1010.1
20210920194504 92 138 0.0 0.0 0.00 0.00 0.00 65 1010.1
20210920193138 92 60 0.0 0.0 0.00 0.00 0.00 62 1010.3
20210920191643 91 144 0.0 0.0 0.00 0.00 0.00 62 1010.5
20210920190237 92 188 0.0 0.0 0.00 0.00 0.00 62 1010.7
20210920184627 92 171 0.0 0.0 0.00 0.00 0.00 60 1010.8
20210920183234 91 148 0.0 0.0 0.00 0.00 0.00 63 1010.9
20210920181630 92 240 0.0 0.0 0.00 0.00 0.00 62 1011.1
20210920180220 91 247 0.0 0.0 0.00 0.00 0.00 63 1011.2
20210920174715 90 171 0.0 0.0 0.00 0.00 0.00 68 1011.4
20210920173128 90 222 0.0 0.0 0.00 0.00 0.00 65 1011.6
20210920171612 90 171 0.0 0.0 0.00 0.00 0.00 67 1011.6
20210920170114 89 180 0.0 0.0 0.00 0.00 0.00 69 1011.7
20210920164553 88 180 0.0 0.0 0.00 0.00 0.00 71 1011.9
20210920163047 88 205 0.0 0.0 0.00 0.00 0.00 73 1011.9
20210920161613 88 189 0.0 0.0 0.00 0.00 0.00 72 1012.0
20210920160050 88 167 0.0 0.0 0.00 0.00 0.00 74 1012.0
20210920154550 87 205 0.0 0.0 0.00 0.00 0.00 76 1012.0
20210920153053 86 207 0.0 0.0 0.00 0.00 0.00 78 1012.0
20210920151537 86 229 0.0 0.0 0.00 0.00 0.00 79 1011.9
20210920150058 87 183 0.0 0.0 0.00 0.00 0.00 79 1011.8
20210920144635 87 200 0.0 0.0 0.00 0.00 0.00 80 1011.6
20210920143022 86 212 0.0 0.0 0.00 0.00 0.00 83 1011.4
20210920141602 85 242 0.0 0.0 0.00 0.00 0.00 85 1011.4
20210920140014 83 168 0.0 0.0 0.00 0.00 0.00 87 1011.3
20210920134522 81 163 0.0 0.0 0.00 0.00 0.00 92 1011.2
20210920133011 79 155 0.0 0.0 0.00 0.00 0.00 96 1011.1
20210920131513 77 138 0.0 0.0 0.00 0.00 0.00 98 1011.1
20210920130215 77 139 0.0 0.0 0.00 0.00 0.00 98 1010.8
20210920124703 76 140 0.0 0.0 0.00 0.00 0.00 98 1010.7
20210920123240 76 142 0.0 0.0 0.00 0.00 0.00 97 1010.6
20210920121626 76 142 0.0 0.0 0.00 0.00 0.00 97 1010.5
20210920120118 76 144 0.0 0.0 0.00 0.00 0.00 98 1010.4
20210920114653 76 144 0.0 0.0 0.00 0.00 0.00 97 1010.2
20210920113152 76 146 0.0 0.0 0.00 0.00 0.00 97 1010.0
20210920111554 76 146 0.0 0.0 0.00 0.00 0.00 97 1010.0
20210920110058 76 148 0.0 0.0 0.00 0.00 0.00 96 1009.9
20210920104631 76 148 0.0 0.0 0.00 0.00 0.00 97 1010.0
20210920103148 76 148 0.0 0.0 0.00 0.00 0.00 97 1009.9
20210920101606 76 149 0.0 0.0 0.00 0.00 0.00 96 1009.8
20210920100104 77 146 0.0 0.0 0.00 0.00 0.00 96 1009.7
20210920094608 77 148 0.0 0.0 0.00 0.00 0.00 95 1009.8
20210920093106 77 150 0.0 0.0 0.00 0.00 0.00 95 1009.7
20210920091746 77 150 0.0 0.0 0.00 0.00 0.00 95 1009.8
20210920090137 77 149 0.0 0.0 0.00 0.00 0.00 95 1009.9
20210920084652 77 148 0.0 0.0 0.00 0.00 0.00 95 1010.0
20210920083113 77 146 0.0 0.0 0.00 0.00 0.00 94 1010.0
20210920081625 77 141 0.0 0.0 0.00 0.00 0.00 94 1010.1
20210920080038 78 142 0.0 0.0 0.00 0.00 0.00 93 1010.1
20210920074542 78 140 0.0 0.0 0.00 0.00 0.00 93 1010.1
20210920073208 78 360 0.0 0.0 0.00 0.00 0.00 92 1010.2
20210920071554 78 126 0.0 0.0 0.00 0.00 0.00 92 1010.2
20210920070121 79 360 0.0 0.0 0.00 0.00 0.00 91 1010.3
20210920064543 79 360 0.0 0.0 0.00 0.00 0.00 91 1010.3